Regional Weather Roundup
Issued by NWS

Home | Current Version | Previous Version | Text Only | Print | Product List | Glossary On
Versions: 1 2 3 4 5 6 7 8 9 10 11 12 13 14 15 16 17 18 19 20 21 22 23 24 25 26 27 28 29 30 31 32 33 34 35 36 37 38 39 40 41 42 43 44 45 46 47 48 49 50
863
ASUS46 KLOX 300613
RWRCA

SOUTHERN CALIFORNIA WEATHER ROUNDUP
NATIONAL WEATHER SERVICE OXNARD CALIFORNIA
1100 PM PDT SUN MAY 29 2016

NOTE: "FAIR" INDICATES FEW OR NO CLOUDS BELOW 12,000 FEET WITH NO
SIGNIFICANT WEATHER AND/OR OBSTRUCTIONS TO VISIBILITY.

  -  STATIONS PRECEEDED BY AN ASTERISK (*) ARE NOT NWS OR FAA
     STATIONS AND ARE NOT SUBJECT TO NWS AND FAA QUALITY CONTROL.

CAZ041-042-087-300700-
LA AND ORANGE COUNTY COASTAL AREAS


CITY           SKY/WX    TMP DP  RH WIND       PRES   REMARKS
L.A. DOWNTOWN  CLEAR     61  52  72 CALM      30.01S
L.A. AIRPORT   PTCLDY    60  55  83 W10       30.02R
LONG BEACH     CLEAR     61  55  81 NW6       30.01S

CITY           SKY/WX    TMP DP  RH WIND       PRES   REMARKS
AVALON           N/A     57 N/A N/A E2          N/A
FULLERTON      CLEAR     63  53  70 CALM      30.00S
*GETTY CENTER    N/A     54  50  87 SW1         N/A
HAWTHORNE      CLEAR     61  55  81 W6        30.02R
*LEO CARRILLO    N/A     57  51  79 N3          N/A
*LOS ALAMITOS  FAIR      61  55  80 W5        30.01S
*REDONDO BEACH   N/A     60  55  81 W3        30.01S
SANTA ANA      CLOUDY    63  54  72 W5        30.01S
STA MONICA APT CLEAR     60  55  83 SW5       30.02R
*STA MON PIER    N/A     60  56  89 W8        29.95S
*UCLA            N/A     59  52  77 W5        29.98F

$$

CAZ547-548-048-300700-
LA COUNTY VALLEYS AND INLAND EMPIRE


CITY           SKY/WX    TMP DP  RH WIND       PRES   REMARKS
BURBANK        CLEAR     60  51  72 S6        30.00S
VAN NUYS       CLEAR     61  50  67 SE5       30.00S

CITY           SKY/WX    TMP DP  RH WIND       PRES   REMARKS
*CHATSWORTH      N/A     60  52  74 CALM      30.01S
CHINO          CLEAR     60  52  74 W9        30.02R
*CLAREMONT       N/A     56  52  86 SW2         N/A
MARCH AFB      CLEAR     58  54  85 NW9       30.01R
*NORTHRIDGE      N/A     61  48  63 E2          N/A
ONTARIO        CLEAR     60  51  72 W9        30.00S
*PASADENA        N/A     61  54  77 CALM        N/A
RIVERSIDE      CLEAR     61  52  72 W5        30.00S
SAN BERNARDINO NOT AVBL
*SAN RAFAEL HI   N/A     55  53  93 CALM        N/A
*SAUGUS          N/A     59  51  76 W7          N/A
*WHITEMAN AP   NOT AVBL
*WHITTIER HILL   N/A     55  51  88 NW6         N/A
*WOODLAND HILL   N/A     59  50  72 S2          N/A

$$

CAZ054-055-300700-
LA AND SAN BERNARDINO COUNTY MOUNTAINS


CITY           SKY/WX    TMP DP  RH WIND       PRES   REMARKS
*ACTON           N/A     56  50  80 S3          N/A
*BIG BEAR AIRP CLEAR     41  28  60 CALM      30.17S
*BIG PINES       N/A     51  36  57 CALM        N/A
*CHILAO          N/A     59  39  47 N10         N/A
SANDBERG       CLEAR     67  37  33 N8G17     30.09S
*WARM SPRINGS    N/A     50  36  58 CALM        N/A

$$

CAZ028-029-059-060-099-300700-
ANTELOPE VALLEY AND SURROUNDING AREAS


CITY           SKY/WX    TMP DP  RH WIND       PRES   REMARKS
LANCASTER      CLEAR     71  42  35 SW10      29.95S
PALMDALE       CLEAR     67  45  45 S12       29.97R
*POPPY PARK      N/A     73  39  28 W14G25      N/A

CITY           SKY/WX    TMP DP  RH WIND       PRES   REMARKS
29 PALMS       CLEAR     74  41  30 W3        29.97R
BARSTOW/DAGGET CLEAR     77  43  29 W5        29.90R
BISHOP         PTCLDY    65  37  35 NW7       30.03S
CHINA LAKE     CLEAR     75  35  23 E6        29.90R
EDWARDS AFB    CLEAR     73  40  30 S6        29.91S
MOJAVE         CLEAR     75  43  31 W25G36    29.95R
NEEDLES        CLEAR     82  26  13 W8        29.83S
VICTORVILLE    CLEAR     66  46  48 CALM      29.98S

$$

CAZ039-040-300700-
VENTURA AND SANTA BARBARA COUNTY COAST


CITY           SKY/WX    TMP DP  RH WIND       PRES   REMARKS
CAMARILLO      CLOUDY    60  54  80 CALM      30.01S
NWS OXNARD       N/A     59  55  85 CALM      30.00S
OXNARD AIRPORT CLOUDY    59  56  89 W7        30.01S
*POINT MUGU    MOCLDY    59  55  87 CALM      30.02S
SBA APT/GOLETA CLOUDY    58  55  90 SW5       30.01R
*SANTA BARBARA   N/A     60  53  77 CALM      30.09S
*VENTURA         N/A     57  54  88 W2        29.99S

$$

CAZ044-045-300700-
VENTURA COUNTY VALLEYS


CITY           SKY/WX    TMP DP  RH WIND       PRES   REMARKS
*SIMI VALLEY     N/A     56  52  86 CALM      29.98S
*WESTLAKE VILL   N/A     53  49  86 CALM      30.00S
*OJAI            N/A     59  54  83 CALM      29.95S
*FILLMORE        N/A     57  49  75 CALM      29.92S

$$

CAZ053-300700-
VENTURA COUNTY MOUNTAINS


CITY           SKY/WX    TMP DP  RH WIND       PRES   REMARKS
*ROSE VALLEY     N/A     52  52 100 MISG        N/A

$$

CAZ034-035-036-300700-
CENTRAL COAST AND SANTA YNEZ VALLEY


CITY           SKY/WX    TMP DP  RH WIND       PRES   REMARKS
SAN LUIS OBISP CLOUDY    59  53  80 NW7       30.02F
SANTA MARIA    CLOUDY    56  53  90 NW5       30.03S

CITY           SKY/WX    TMP DP  RH WIND       PRES   REMARKS
*CAL POLY SLO    N/A     57  54  88 SW3G10      N/A
*LOMPOC        CLOUDY    57  53  86 N6        30.03R
*PISMO BEACH     N/A     57  55  91 W2        30.03F
*SANTA YNEZ    CLOUDY    55  52  88 CALM      30.02S

$$

CAZ037-038-051-300700-
SAN LUIS OBISPO COUNTY INTERIOR AND CUYAMA VALLEY


CITY           SKY/WX    TMP DP  RH WIND       PRES   REMARKS
*CUYAMA          N/A     62  50  64 W3        29.93R
PASO ROBLES    CLEAR     56  50  80 S7        30.00R

$$

CAZ032-033-061-300700-
SOUTHERN DESERTS


CITY           SKY/WX    TMP DP  RH WIND       PRES   REMARKS
BLYTHE         CLEAR     81  41  24 W6        29.82S
IMPERIAL       CLEAR     80  47  31 W15       29.81S
PALM SPRINGS   CLEAR     77  51  40 NW12      29.85R
THERMAL        CLEAR     78  50  37 NW12      29.80S

$$

ELSEWHERE ACROSS THE WESTERN UNITED STATES AND MEXICO


CITY           SKY/WX    TMP DP  RH WIND       PRES   REMARKS
DENVER, CO     PTCLDY    54  43  66 S10       30.11F
GRAND CANYON,  PTCLDY    46  17  31 NE3       30.18S
HONOLULU, HI   LGT RAIN  73  70  88 SE7       30.03
KAHULUI, MAUI  PTCLDY    79  68  69 CALM      30.02R
LAKE TAHOE, CA CLEAR     47  37  68 CALM      30.21S
LAS VEGAS, NV  CLEAR     81  18   9 S7        29.85R
MAMMOTH LAKES, FAIR      49  37  64 W8        30.24S
MEXICO CITY, M PTCLDY    64  52  63 NW3       30.41S
PHOENIX, AZ    CLEAR     85  20   9 W12       29.84R
PORTLAND, OR   CLEAR     57  42  57 NW9       30.23R
RENO, NV       PTCLDY    69  32  25 N8        30.10R
SALT LAKE CITY CLOUDY    64  47  53 N24G33    30.09R
SAN DIEGO, CA  CLOUDY    65  55  70 NW7       30.03S
SAN FRANCISCO, PTCLDY    54  47  77 NW14      30.00R
SAN JOSE, CA   CLEAR     59  53  80 W5        30.00R
SEATTLE, WA    PTCLDY    56  43  61 NE12      30.25R
TIJUANA, MEX   CLOUDY    61  52  72 W7        30.03S

$$

STATION/POSITION TIME  TEMP    WIND        PRES    VSBY  WAVE
                       AIR SEA DIR/SP/G                  HT/PER
                 (UTC) (F)     (DEG/KT/KT) (MB)    (MI)  (FT/S)
POINT ARGUELLO B NOT AVBL
WEST SANTA BARBA 0550   57 58  320/ 14/ 16 1016.4R         4/10
POINT CONCEPTION NOT AVBL
EAST SANTA BARBA 0500   58 60  250/ 10/ 12 1016.6R
SANTA MONICA BAY 0550   60 64  310/  6/  8 1016.6R         3/13



USA.gov is the U.S. government's official web portal to all federal, state and local government web resources and services.